Time,TemperatureF,DewpointF,PressureIn,WindDirection,WindDirectionDegrees,WindSpeedMPH,WindSpeedGustMPH,Humidity,HourlyPrecipIn,Conditions,Clouds,dailyrainin,SoftwareType,DateUTC
2013-01-03 00:27:00,14.9,9.0,30.20,SSE,151,0.0,-999.0,76,-99.99,,,0.00,weatherlink.com 1.10,2013-01-03 05:27:00,
2013-01-03 00:41:00,15.1,9.0,30.20,SSE,151,0.0,-999.0,78,-99.99,,,0.00,weatherlink.com 1.10,2013-01-03 05:41:00,
2013-01-03 00:56:00,15.6,10.0,30.20,SSE,151,0.0,-999.0,79,-99.99,,,0.00,weatherlink.com 1.10,2013-01-03 05:56:00,
2013-01-03 01:11:00,16.4,11.0,30.19,SSE,151,0.0,-999.0,79,-99.99,,,0.00,weatherlink.com 1.10,2013-01-03 06:11:00,
2013-01-03 01:26:00,17.0,12.0,30.19,SSE,151,0.0,-999.0,80,-99.99,,,0.00,weatherlink.com 1.10,2013-01-03 06:26:00,
2013-01-03 01:42:00,17.8,12.0,30.19,SSE,151,0.0,-999.0,79,-99.99,,,0.00,weatherlink.com 1.10,2013-01-03 06:42:00,
2013-01-03 01:56:00,18.6,13.0,30.18,SSE,151,0.0,-999.0,79,-99.99,,,0.00,weatherlink.com 1.10,2013-01-03 06:56:00,
2013-01-03 02:11:00,18.9,13.0,30.19,SSE,151,0.0,-999.0,78,-99.99,,,0.00,weatherlink.com 1.10,2013-01-03 07:11:00,
2013-01-03 02:26:00,19.2,13.0,30.20,SSE,151,0.0,-999.0,78,-99.99,,,0.00,weatherlink.com 1.10,2013-01-03 07:26:00,
2013-01-03 02:41:00,19.4,14.0,30.19,SSE,151,0.0,-999.0,78,-99.99,,,0.00,weatherlink.com 1.10,2013-01-03 07:41:00,
2013-01-03 02:56:00,19.5,14.0,30.19,SSE,151,0.0,-999.0,78,-99.99,,,0.00,weatherlink.com 1.10,2013-01-03 07:56:00,
2013-01-03 03:11:00,19.9,14.0,30.19,SSE,151,0.0,-999.0,79,-99.99,,,0.00,weatherlink.com 1.10,2013-01-03 08:11:00,
2013-01-03 03:26:00,20.0,15.0,30.19,SSE,151,0.0,-999.0,80,-99.99,,,0.00,weatherlink.com 1.10,2013-01-03 08:26:00,
2013-01-03 03:41:00,20.0,15.0,30.18,SSE,151,0.0,-999.0,80,-99.99,,,0.00,weatherlink.com 1.10,2013-01-03 08:41:00,
2013-01-03 03:56:00,20.2,15.0,30.18,SSE,151,0.0,-999.0,80,-99.99,,,0.00,weatherlink.com 1.10,2013-01-03 08:56:00,
2013-01-03 04:11:00,20.2,15.0,30.17,SSE,151,0.0,-999.0,81,-99.99,,,0.00,weatherlink.com 1.10,2013-01-03 09:11:00,
2013-01-03 04:26:00,20.2,15.0,30.17,SSE,151,0.0,-999.0,81,-99.99,,,0.00,weatherlink.com 1.10,2013-01-03 09:26:00,
2013-01-03 04:56:00,20.5,16.0,30.16,SSE,151,0.0,-999.0,81,-99.99,,,0.00,weatherlink.com 1.10,2013-01-03 09:56:00,
2013-01-03 05:12:00,20.5,16.0,30.16,SSE,151,0.0,-999.0,81,-99.99,,,0.00,weatherlink.com 1.10,2013-01-03 10:12:00,
2013-01-03 05:32:00,20.8,16.0,30.16,SSW,210,0.0,-999.0,81,-99.99,,,0.00,weatherlink.com 1.10,2013-01-03 10:32:00,
2013-01-03 05:42:00,20.8,16.0,30.16,SSW,210,0.0,-999.0,80,-99.99,,,0.00,weatherlink.com 1.10,2013-01-03 10:42:00,
2013-01-03 05:56:00,21.0,16.0,30.16,SSW,210,0.0,-999.0,80,-99.99,,,0.00,weatherlink.com 1.10,2013-01-03 10:56:00,
2013-01-03 06:12:00,21.1,16.0,30.15,South,173,0.0,-999.0,80,-99.99,,,0.00,weatherlink.com 1.10,2013-01-03 11:12:00,
2013-01-03 06:27:00,21.3,16.0,30.15,South,185,0.0,-999.0,80,-99.99,,,0.00,weatherlink.com 1.10,2013-01-03 11:27:00,
2013-01-03 06:41:00,21.4,16.0,30.15,South,185,0.0,-999.0,80,-99.99,,,0.00,weatherlink.com 1.10,2013-01-03 11:41:00,
2013-01-03 06:56:00,21.4,16.0,30.15,South,185,0.0,-999.0,81,-99.99,,,0.00,weatherlink.com 1.10,2013-01-03 11:56:00,
2013-01-03 07:11:00,21.4,16.0,30.15,South,185,0.0,-999.0,81,-99.99,,,0.00,weatherlink.com 1.10,2013-01-03 12:11:00,
2013-01-03 07:26:00,21.4,16.0,30.14,South,185,0.0,-999.0,81,-99.99,,,0.00,weatherlink.com 1.10,2013-01-03 12:26:00,
2013-01-03 07:41:00,21.8,17.0,30.14,South,185,0.0,-999.0,80,-99.99,,,0.00,weatherlink.com 1.10,2013-01-03 12:41:00,
2013-01-03 07:56:00,21.8,17.0,30.14,SSW,210,0.0,-999.0,81,-99.99,,,0.00,weatherlink.com 1.10,2013-01-03 12:56:00,
2013-01-03 08:12:00,21.8,17.0,30.14,South,176,0.0,-999.0,82,-99.99,,,0.00,weatherlink.com 1.10,2013-01-03 13:12:00,
2013-01-03 08:27:00,21.9,18.0,30.14,South,175,0.0,-999.0,83,-99.99,,,0.00,weatherlink.com 1.10,2013-01-03 13:27:00,
2013-01-03 08:42:00,21.9,18.0,30.12,South,175,0.0,-999.0,83,-99.99,,,0.00,weatherlink.com 1.10,2013-01-03 13:42:00,
2013-01-03 08:57:00,22.2,18.0,30.12,South,184,0.0,-999.0,84,-99.99,,,0.00,weatherlink.com 1.10,2013-01-03 13:57:00,
2013-01-03 09:11:00,22.2,18.0,30.12,South,178,0.0,-999.0,84,-99.99,,,0.00,weatherlink.com 1.10,2013-01-03 14:11:00,
2013-01-03 09:26:00,22.4,19.0,30.12,South,176,2.0,-999.0,85,-99.99,,,0.00,weatherlink.com 1.10,2013-01-03 14:26:00,
2013-01-03 09:41:00,22.2,18.0,30.12,South,178,0.0,-999.0,85,-99.99,,,0.00,weatherlink.com 1.10,2013-01-03 14:41:00,
2013-01-03 09:56:00,22.1,18.0,30.13,SW,232,0.0,-999.0,84,-99.99,,,0.00,weatherlink.com 1.10,2013-01-03 14:56:00,
2013-01-03 10:12:00,22.2,18.0,30.13,SSW,198,0.0,-999.0,84,-99.99,,,0.00,weatherlink.com 1.10,2013-01-03 15:12:00,
2013-01-03 10:26:00,22.4,18.0,30.12,South,185,0.0,-999.0,82,-99.99,,,0.00,weatherlink.com 1.10,2013-01-03 15:26:00,
2013-01-03 10:42:00,22.7,18.0,30.12,SW,221,0.0,-999.0,82,-99.99,,,0.00,weatherlink.com 1.10,2013-01-03 15:42:00,
2013-01-03 10:57:00,22.9,18.0,30.11,SW,215,0.0,-999.0,82,-99.99,,,0.00,weatherlink.com 1.10,2013-01-03 15:57:00,
2013-01-03 11:11:00,23.2,19.0,30.10,SSW,194,1.0,-999.0,82,-99.99,,,0.00,weatherlink.com 1.10,2013-01-03 16:11:00,
2013-01-03 11:26:00,23.3,19.0,30.10,SSW,205,4.0,-999.0,82,-99.99,,,0.00,weatherlink.com 1.10,2013-01-03 16:26:00,
2013-01-03 11:41:00,23.6,19.0,30.08,South,171,1.0,-999.0,81,-99.99,,,0.00,weatherlink.com 1.10,2013-01-03 16:41:00,
2013-01-03 11:57:00,23.9,19.0,30.07,SW,221,0.0,-999.0,81,-99.99,,,0.00,weatherlink.com 1.10,2013-01-03 16:57:00,
2013-01-03 12:12:00,24.4,19.0,30.05,SW,234,2.0,-999.0,80,-99.99,,,0.00,weatherlink.com 1.10,2013-01-03 17:12:00,
2013-01-03 12:27:00,25.0,20.0,30.05,WSW,240,4.0,-999.0,80,-99.99,,,0.00,weatherlink.com 1.10,2013-01-03 17:27:00,
2013-01-03 12:41:00,25.4,20.0,30.04,SSW,192,3.0,-999.0,79,-99.99,,,0.00,weatherlink.com 1.10,2013-01-03 17:41:00,
2013-01-03 12:57:00,26.0,20.0,30.03,SW,234,5.0,-999.0,79,-99.99,,,0.00,weatherlink.com 1.10,2013-01-03 17:57:00,
2013-01-03 13:12:00,26.6,21.0,30.02,West,259,6.0,-999.0,80,-99.99,,,0.00,weatherlink.com 1.10,2013-01-03 18:12:00,
2013-01-03 13:27:00,26.7,21.0,30.02,SW,215,3.0,-999.0,80,-99.99,,,0.00,weatherlink.com 1.10,2013-01-03 18:27:00,
2013-01-03 13:43:00,26.7,22.0,30.01,WSW,240,2.0,-999.0,81,-99.99,,,0.00,weatherlink.com 1.10,2013-01-03 18:43:00,
2013-01-03 13:56:00,27.2,22.0,30.01,SSW,212,4.0,-999.0,80,-99.99,,,0.00,weatherlink.com 1.10,2013-01-03 18:56:00,
2013-01-03 14:12:00,28.4,21.0,30.00,WSW,258,3.0,-999.0,74,-99.99,,,0.00,weatherlink.com 1.10,2013-01-03 19:12:00,
2013-01-03 14:57:00,29.1,22.0,30.00,West,280,3.0,-999.0,75,-99.99,,,0.00,weatherlink.com 1.10,2013-01-03 19:57:00,
2013-01-03 15:12:00,29.4,23.0,30.00,West,259,12.0,-999.0,76,-99.99,,,0.00,weatherlink.com 1.10,2013-01-03 20:12:00,
2013-01-03 15:27:00,29.4,23.0,30.00,SW,219,1.0,-999.0,78,-99.99,,,0.00,weatherlink.com 1.10,2013-01-03 20:27:00,
2013-01-03 15:42:00,29.7,25.0,29.99,SSW,211,3.0,-999.0,83,-99.99,,,0.00,weatherlink.com 1.10,2013-01-03 20:42:00,
2013-01-03 15:56:00,28.8,25.0,29.99,SW,221,7.0,-999.0,86,-99.99,,,0.00,weatherlink.com 1.10,2013-01-03 20:56:00,
2013-01-03 16:12:00,28.5,25.0,30.00,SSW,197,5.0,-999.0,88,-99.99,,,0.00,weatherlink.com 1.10,2013-01-03 21:12:00,
2013-01-03 16:26:00,28.7,26.0,29.99,SW,222,2.0,-999.0,89,-99.99,,,0.00,weatherlink.com 1.10,2013-01-03 21:26:00,
2013-01-03 16:42:00,29.4,27.0,30.00,West,265,0.0,-999.0,90,-99.99,,,0.00,weatherlink.com 1.10,2013-01-03 21:42:00,
2013-01-03 16:58:00,30.1,27.0,30.00,SW,235,0.0,-999.0,88,-99.99,,,0.00,weatherlink.com 1.10,2013-01-03 21:58:00,
2013-01-03 17:11:00,30.4,27.0,30.00,SW,223,3.0,-999.0,86,-99.99,,,0.00,weatherlink.com 1.10,2013-01-03 22:11:00,
2013-01-03 17:27:00,30.4,26.0,30.00,WSW,237,3.0,-999.0,84,-99.99,,,0.00,weatherlink.com 1.10,2013-01-03 22:27:00,
2013-01-03 17:42:00,30.6,26.0,30.01,WSW,251,1.0,-999.0,84,-99.99,,,0.00,weatherlink.com 1.10,2013-01-03 22:42:00,
2013-01-03 17:56:00,30.4,26.0,30.02,NNW,331,0.0,-999.0,82,-99.99,,,0.00,weatherlink.com 1.10,2013-01-03 22:56:00,
2013-01-03 18:12:00,30.0,25.0,30.02,NW,306,0.0,-999.0,81,-99.99,,,0.00,weatherlink.com 1.10,2013-01-03 23:12:00,
2013-01-03 18:27:00,29.5,24.0,30.02,NNW,337,2.0,-999.0,81,-99.99,,,0.00,weatherlink.com 1.10,2013-01-03 23:27:00,
2013-01-03 18:41:00,29.3,24.0,30.03,NNW,333,3.0,-999.0,80,-99.99,,,0.00,weatherlink.com 1.10,2013-01-03 23:41:00,
2013-01-03 18:56:00,29.0,23.0,30.04,WSW,253,4.0,-999.0,79,-99.99,,,0.00,weatherlink.com 1.10,2013-01-03 23:56:00,
2013-01-03 19:11:00,28.8,23.0,30.04,WSW,242,2.0,-999.0,79,-99.99,,,0.00,weatherlink.com 1.10,2013-01-04 00:11:00,
2013-01-03 19:27:00,28.5,22.0,30.05,WSW,244,0.0,-999.0,78,-99.99,,,0.00,weatherlink.com 1.10,2013-01-04 00:27:00,
2013-01-03 19:42:00,28.2,22.0,30.05,WSW,247,0.0,-999.0,78,-99.99,,,0.00,weatherlink.com 1.10,2013-01-04 00:42:00,
2013-01-03 19:57:00,27.9,22.0,30.05,SW,228,0.0,-999.0,79,-99.99,,,0.00,weatherlink.com 1.10,2013-01-04 00:57:00,
2013-01-03 20:11:00,27.8,22.0,30.05,WNW,290,9.0,-999.0,79,-99.99,,,0.00,weatherlink.com 1.10,2013-01-04 01:11:00,
2013-01-03 20:27:00,27.2,22.0,30.05,SW,219,0.0,-999.0,79,-99.99,,,0.00,weatherlink.com 1.10,2013-01-04 01:27:00,
2013-01-03 20:42:00,26.9,22.0,30.05,WSW,256,0.0,-999.0,80,-99.99,,,0.00,weatherlink.com 1.10,2013-01-04 01:42:00,
2013-01-03 20:57:00,26.7,21.0,30.05,WNW,291,1.0,-999.0,80,-99.99,,,0.00,weatherlink.com 1.10,2013-01-04 01:57:00,
2013-01-03 21:12:00,26.6,21.0,30.06,West,262,2.0,-999.0,80,-99.99,,,0.00,weatherlink.com 1.10,2013-01-04 02:12:00,
2013-01-03 21:26:00,26.6,21.0,30.06,WSW,244,1.0,-999.0,80,-99.99,,,0.00,weatherlink.com 1.10,2013-01-04 02:26:00,
2013-01-03 21:42:00,26.4,21.0,30.06,West,261,3.0,-999.0,81,-99.99,,,0.00,weatherlink.com 1.10,2013-01-04 02:42:00,
2013-01-03 21:57:00,26.4,21.0,30.06,West,271,3.0,-999.0,81,-99.99,,,0.00,weatherlink.com 1.10,2013-01-04 02:57:00,
2013-01-03 22:11:00,26.6,21.0,30.06,West,271,0.0,-999.0,80,-99.99,,,0.00,weatherlink.com 1.10,2013-01-04 03:11:00,
2013-01-03 22:27:00,26.6,21.0,30.06,West,274,0.0,-999.0,80,-99.99,,,0.00,weatherlink.com 1.10,2013-01-04 03:27:00,
2013-01-03 22:42:00,26.7,21.0,30.05,WSW,247,5.0,-999.0,80,-99.99,,,0.00,weatherlink.com 1.10,2013-01-04 03:42:00,
2013-01-03 22:56:00,26.9,21.0,30.06,WSW,247,5.0,-999.0,79,-99.99,,,0.00,weatherlink.com 1.10,2013-01-04 03:56:00,
2013-01-03 23:12:00,27.0,21.0,30.05,North,5,0.0,-999.0,79,-99.99,,,0.00,weatherlink.com 1.10,2013-01-04 04:12:00,
2013-01-03 23:27:00,27.0,21.0,30.05,West,263,2.0,-999.0,79,-99.99,,,0.00,weatherlink.com 1.10,2013-01-04 04:27:00,
2013-01-03 23:42:00,27.2,21.0,30.05,West,271,0.0,-999.0,78,-99.99,,,0.00,weatherlink.com 1.10,2013-01-04 04:42:00,
2013-01-03 23:57:00,27.3,21.0,30.05,WSW,247,5.0,-999.0,78,-99.99,,,0.00,weatherlink.com 1.10,2013-01-04 04:57:00,